This is the latest recevied weather packets stored in our database for station/object KC8RFE-2. If no packets are shown the sender has not sent any weather packets the latest 1 day(s).
| Time | Temp. | Humidity | Pressure | Rain* | Wind** | Luminosity | Snow |
|---|---|---|---|---|---|---|---|
| 1778009598 | 11.67° C | 9% | - | 0 mm | 0 m/s | - | - |
| 1778009327 | 11.11° C | 9% | - | 0 mm | 0 m/s | - | - |
| 1778008998 | 11.11° C | 9% | - | 0 mm | 0.45 m/s, 312° | - | - |
| 1778008727 | 11.11° C | 9% | - | 0 mm | 0.45 m/s, 310° | - | - |
| 1778008399 | 11.11° C | 9% | - | 0 mm | 0.45 m/s, 344° | - | - |
| 1778008127 | 11.11° C | 9% | - | 0 mm | 0.45 m/s, 307° | - | - |
| 1778007798 | 11.11° C | 9% | - | 0 mm | 0.45 m/s, 310° | - | - |
| 1778007527 | 10.56° C | 9% | - | 0 mm | 0.89 m/s, 339° | - | - |
| 1778007198 | 10.56° C | 9% | - | 0 mm | 1.34 m/s, 347° | - | - |
| 1778006927 | 10.56° C | 9% | - | 0 mm | 1.34 m/s, 27° | - | - |
| 1778006627 | 10.56° C | 9% | - | 0 mm | 1.34 m/s, 345° | - | - |
| 1778006326 | 10.56° C | 9% | - | 0 mm | 0.89 m/s, 354° | - | - |
| 1778005997 | 10.56° C | 9% | - | 0 mm | 1.34 m/s, 11° | - | - |
| 1778005726 | 10.56° C | 9% | - | 0 mm | 1.34 m/s, 8° | - | - |
| 1778005398 | 10.56° C | 9% | - | 0 mm | 1.34 m/s, 63° | - | - |
| 1778005126 | 10.56° C | 9% | - | 0 mm | 0.89 m/s, 2° | - | - |
| 1778004798 | 10.56° C | 9% | - | 0 mm | 0.89 m/s, 352° | - | - |
| 1778004526 | 10.56° C | 9% | - | 0 mm | 0.89 m/s, 355° | - | - |
| 1778004199 | 10.56° C | 9% | - | 0 mm | 1.79 m/s, 356° | - | - |
| 1778003926 | 10.56° C | 9% | - | 0 mm | 1.34 m/s, 16° | - | - |
| 1778003597 | 10.56° C | 9% | - | 0 mm | 1.34 m/s, 346° | - | - |
| 1778003326 | 11.11° C | 9% | - | 0 mm | 1.79 m/s, 329° | - | - |
| 1778002997 | 11.11° C | 9% | - | 0 mm | 1.79 m/s, 349° | - | - |
| 1778002726 | 11.67° C | 9% | - | 0 mm | 1.79 m/s, 44° | - | - |
| 1778002398 | 12.22° C | 9% | - | 0 mm | 2.24 m/s, 9° | - | - |
* Rain latest hour (hover to see other rain measurements)
** Current wind speed in m/s (hover to see current wind gust speed)